Weather History for KMSO - August, 2012

Change the Weather History Date:

Friday, August 24, 2012

  Actual Average Record
Temperature  
Mean Temperature 59 °F 66 °F  
Max Temperature 72 °F 83 °F 102 °F (1969)
Min Temperature 45 °F 49 °F 32 °F (1910)
Degree Days  
Heating Degree Days 6 2  
Month to date heating degree days 7 29  
Since 1 June heating degree days 210 227  
Since 1 July heating degree days 19 67  
Cooling Degree Days 0 3  
Month to date cooling degree days 138 110  
Year to date cooling degree days 400 304  
Since 1 June cooling degree days 400 298  
Growing Degree Days 9 (Base 50)    
Moisture  
Dew Point 29 °F    
Average Humidity 37    
Maximum Humidity 54    
Minimum Humidity 19    
Precipitation  
Precipitation 0.00 in 0.05 in 0.62 in (1907)
Month to date precipitation 0.16 0.90  
Year to date precipitation 10.51 9.74  
Snow  
Snow 0.00 in - - ()
Month to date snowfall 0.0  
Year to date snowfall 29.2  
Since 1 July snowfall 0.0  
Snow Depth 0.00 in    
Sea Level Pressure  
Sea Level Pressure 29.99 in    
Wind  
Wind Speed 10 mph (WNW)    
Max Wind Speed 25 mph    
Max Gust Speed 31 mph    
Visibility 10 miles    
Events      
T = Trace of Precipitation, MM = Missing Value Source: NWS Daily Summary

Daily Weather History Graph

Daily Weather History Graph

Search for Another Location

Airport or City:

Trip Planner

Search our weather history database for the weather conditions in past years. The results will help you decide how hot, cold, wet, or windy it might be!

Date:

Astronomy

Aug. 24, 2012 Rise Set
Actual Time 6:46 AM MDT 8:29 PM MDT
Civil Twilight 6:13 AM MDT 9:02 PM MDT
Nautical Twilight 5:34 AM MDT 9:41 PM MDT
Astronomical Twilight 4:51 AM MDT 10:23 PM MDT
Moon 3:16 PM MDT (8/24) No Moon Set
Length of Visible Light 14h 48m
Length of Day
13h 43m
First Quarter, 52% of the Moon is Illuminated
Aug 24
First Quarter
Aug 31
Full
Sep 8
Last Quarter
Sep 15
New
Sep 22
First Quarter

Hourly Weather History & Observations

Time (MDT) Temp. Windchill Dew Point Humidity Pressure Visibility Wind Dir Wind Speed Gust Speed Precip Events Conditions
12:53 AM 55.9 °F - 30.9 °F 39% 29.84 in 10.0 mi WNW 8.1 mph - N/A   Clear
1:53 AM 53.1 °F - 30.9 °F 43% 29.84 in 10.0 mi West 6.9 mph - N/A   Clear
2:53 AM 51.1 °F - 30.9 °F 46% 29.85 in 10.0 mi West 4.6 mph - N/A   Clear
3:53 AM 48.9 °F - 32.0 °F 52% 29.87 in 10.0 mi NNW 3.5 mph - N/A   Clear
4:53 AM 48.9 °F - 30.9 °F 50% 29.89 in 10.0 mi Calm Calm - N/A   Clear
5:53 AM 46.0 °F 43.9 °F 28.9 °F 51% 29.93 in 10.0 mi NNW 4.6 mph - N/A   Clear
6:53 AM 51.1 °F - 30.0 °F 44% 29.95 in 10.0 mi West 5.8 mph - N/A   Clear
7:53 AM 57.0 °F - 32.0 °F 39% 29.97 in 10.0 mi West 20.7 mph 27.6 mph N/A   Clear
8:53 AM 59.0 °F - 30.9 °F 35% 30.00 in 10.0 mi West 15.0 mph 24.2 mph N/A   Clear
9:53 AM 61.0 °F - 28.0 °F 29% 30.01 in 10.0 mi West 16.1 mph 27.6 mph N/A   Clear
10:53 AM 63.0 °F - 27.0 °F 26% 30.02 in 10.0 mi WNW 13.8 mph 21.9 mph N/A   Clear
11:53 AM 64.4 °F - 28.4 °F 26% 30.06 in 10.0 mi West 8.1 mph 23.0 mph N/A   Scattered Clouds
12:53 PM 64.9 °F - 28.9 °F 26% 30.02 in 10.0 mi NNW 11.5 mph 17.3 mph N/A   Partly Cloudy
1:53 PM 68.0 °F - 28.9 °F 23% 30.02 in 10.0 mi WNW 13.8 mph 19.6 mph N/A   Clear
2:53 PM 71.1 °F - 28.0 °F 20% 30.02 in 10.0 mi West 19.6 mph 24.2 mph N/A   Partly Cloudy
3:53 PM 71.1 °F - 26.1 °F 19% 30.03 in 10.0 mi West 18.4 mph 28.8 mph N/A   Clear
4:53 PM 71.1 °F - 26.1 °F 19% 30.04 in 10.0 mi NNW 17.3 mph 23.0 mph N/A   Clear
5:53 PM 70.0 °F - 26.1 °F 19% 30.04 in 10.0 mi West 15.0 mph - N/A   Clear
6:01 PM 69.8 °F - 26.6 °F 20% 30.06 in 10.0 mi WNW 13.8 mph 21.9 mph N/A   Clear
6:53 PM 69.1 °F - 27.0 °F 21% 30.04 in 10.0 mi NW 12.7 mph 21.9 mph N/A   Clear
7:53 PM 66.9 °F - 28.0 °F 23% 30.03 in 10.0 mi NW 10.4 mph - N/A   Clear
8:53 PM 61.0 °F - 30.0 °F 31% 30.05 in 10.0 mi NNW 5.8 mph - N/A   Clear
9:53 PM 57.9 °F - 28.9 °F 33% 30.06 in 10.0 mi North 3.5 mph - N/A   Clear
10:53 PM 55.0 °F - 30.0 °F 38% 30.07 in 10.0 mi North 6.9 mph - N/A   Clear
11:53 PM 50.0 °F - 30.9 °F 48% 30.07 in 10.0 mi NNW 6.9 mph - N/A   Clear